Regional Weather Roundup
Issued by NWS Sioux Falls, SD

Home | Current Version | Previous Version | Text Only | Print | Product List | Glossary Off
Versions: 1 2 3 4 5 6 7 8 9 10 11 12 13 14 15 16 17 18 19 20 21 22 23 24 25 26 27 28 29 30 31 32 33 34 35 36 37 38 39 40 41 42 43 44 45 46 47 48 49 50

000
ASUS43 KFSD 271410
RWRFSD

WEATHER ROUNDUP FOR SE SOUTH DAKOTA/SW MINNESOTA/NW IOWA
NATIONAL WEATHER SERVICE SIOUX FALLS SD
900 AM CDT SAT MAY 27 2017

NOTE: "FAIR" INDICATES FEW OR NO CLOUDS BELOW 12,000 FEET WITH NO
SIGNIFICANT WEATHER AND OR OBSTRUCTIONS TO VISIBILITY.


SDZ038>040-050-052>070-271500-
SOUTHEAST SOUTH DAKOTA

CITY           SKY/WX    TMP DP  RH WIND       PRES   REMARKS
BROOKINGS      CLOUDY    59  50  72 S7        29.93S
CHAMBERLAIN    CLOUDY    60  51  71 W6        29.96S
HURON          PTSUNNY   62  49  62 W7        29.92R
MADISON        PTSUNNY   55  50  82 SW9       29.93S
MITCHELL       CLOUDY    59  52  77 S6        29.94R
SIOUX FALLS    LGT RAIN  57  54  89 SW3       29.93F
WINNER         LGT RAIN  57  51  80 NW12      29.98R
YANKTON        CLOUDY    55  53  93 N3        29.95R
$$

MNZ071-072-080-081-089-090-097-098-271500-
SOUTHWEST MINNESOTA

CITY           SKY/WX    TMP DP  RH WIND       PRES   REMARKS
FAIRMONT       CLOUDY    66  46  48 N5        29.92R
JACKSON        PTSUNNY   61  46  59 W3        29.93R
LUVERNE        LGT RAIN  54  46  76 CALM      29.95S
MARSHALL       CLOUDY    61  49  64 SW8       29.92R
MONTEVIDEO     CLOUDY    59  48  67 SW3       29.91R
PIPESTONE      CLOUDY    57  46  67 W5        29.94S
REDWOOD FALLS  CLOUDY    63  49  60 SW6       29.92R
TRACY          CLOUDY    60  50  69 SW10      29.93R
WINDOM         CLOUDY    61  52  72 W6        29.93S
WORTHINGTON    LGT RAIN  60  48  64 SW6       29.95R
$$

IAZ001>003-012>014-020>022-031-032-NEZ013-014-SDZ071-271500-
NORTHWEST IOWA

CITY           SKY/WX    TMP DP  RH WIND       PRES   REMARKS
CHEROKEE       CLOUDY    57  52  82 CALM      29.93R
DENISON        CLOUDY    61  50  67 VRB5      29.92R
ESTHERVILLE    MOSUNNY   64  48  56 CALM      29.92R
LE MARS        CLOUDY    59  50  72 N9        29.95S
ORANGE CITY    LGT RAIN  55  52  88 NW5       29.96R
SHELDON        CLOUDY    57  52  82 NW9       29.94R
SIOUX CITY     CLOUDY    59  51  75 NW9       29.94R
SPENCER        CLOUDY    61  53  75 N3        29.93R
STORM LAKE     CLOUDY    63  46  55 E8        29.93R
$$

ABBREVIATIONS USED IN REMARKS
   TC - TEMPERATURE IN CELSIUS
  WCI - WIND CHILL INDEX
   HX - HEAT INDEX
  VSB - VISIBILITY





USA.gov is the U.S. government's official web portal to all federal, state and local government web resources and services.